QuikScat

operational
NORAD ID: 25789 Int'l Des: 1999-034 Owner: GSFC Country: US
LEOCIRCULARRETROGRADESSO

About QuikScat

Description loading...

Live Position

Loading 3D Globe...

Upcoming Passes

Altitude History

Altitude vs Time

uPlot chart will show altitude changes over time

Two-Line Element Set

1 25789U 99034A 26062.14974208 .00000360 00000-0 96621-4 0 9994
2 25789 98.2855 304.3065 0094069 247.7511 111.3687 14.51647532397134
Epoch: Mar 3, 2026 • Age: 29 hours

Current Status

Altitude 712.2 km
Velocity 7.51 km/s
Sub-Earth Point 16.92°N, 111.58°W
Launch Date Jun 20, 1999
Age 26.7 years
Type other

Technical Details

Classification Payload
Mass 970.00 kg
Dry Mass 870.00 kg
Total Mass 970.00 kg
Length 2.20 m
Diameter 1.70 m
Span 3.80 m
Shape Box + 2 Pan
Manufacturer BALL
Bus Type BCP-2000
Phase Status In Orbit
Owner/State GSFC/US

Large Constellations

Loading constellations...